Volver al catálogo

SL-12 R/B(2)

ActivoGEO
NORAD 23451·ROCKET BODY·🇷🇺 Russia

Lanzado Dec 28, 1994 desde Baikonur Cosmodrome

Loading…

TLE

ActualizadoSource: Space-Track

Época: Sep 14, 2026, 05:40 UTC

1 23451U 94087D   26257.23623508 -.00000244  00000-0  00000-0 0  9995
2 23451  14.3058 350.3132 0008842 149.2234 220.8229  1.00065087 48174

Sigue SL-12 R/B(2) en tiempo real con AllMySat

Download on the App Store